OBJECT A, 60235

Orbit data source: Space-Track

You're viewing an Uncataloged Satellite

Recently launched and/or uncataloged satellites may have evolving metadata. Metadata may include but not limited to: Owner, Maufacturer, Bus, Motor, and Mission.

OBJECT A, 60235 is a satellite in LEO that was launched on Tue, 09 Jul 2024 UTC via an ARIANE 62 launch vehicle from the French Guiana (FRGUI). Unknown objects in Earth's orbit typically refer to objects detected orbiting the Earth but have not yet been identified or cataloged. These objects could be anything from previously untracked satellites, spent rocket stages, debris from satellite collisions, or even natural meteoroids temporarily captured by Earth's gravity.

Loading next visibility...
Identifier
60235, 2024-128A
Orbit
LEO
Country
Flag of TBDTBD
Related business
None
Manufacturer
UCB
Mission
Amateur Science
Bus & Motor
CUBESAT 3U, Unknown motor
Mass
5 kg wet, 5 kg dry
Launch date (UTC)
2024-07-09 (1 year ago)
Launch vehicle
ARIANE 62
Launch site
French Guiana (FRGUI)
Object type
Unknown
Shape & HBR
Box, 0.1 m
Radar Cross Section
0.035 m², Small (<0.1 m²)

Expand to show TLE details & history
Last TLE update: 7 hours ago

TLE from 7 hours ago
0 OBJECT A
1 60235U 24128A   25260.98556112  .00002625  00000-0  22214-3 0  9994
2 60235  61.9934  96.8701 0063443  73.8879 286.9182 14.99256614 65164
Epoch: 2025-09-17T23:39Z
TLE epoch observation values (Epoch: 2025-09-17T23:39:12.48Z)
Latitude
-0.00007°
Longitude
104.91441°
Altitude
558.389 km
Speed
7.59 km/s
True Right ascension
06h 27m 28s
True Declination
0° 00' 00"
Sunlit
Object was in daylight at epoch
Visualization orbit readout
Latitude
Unknown
Longitude
Unknown
Altitude
Unknown
Speed
Unknown
Apparent Right ascension
Unknown
Apparent Declination
Unknown
Sunlit
N/A
Visualization observer readout
Local Sidereal Time
23:54:56
Azimuth
Unknown
Elevation
Unknown
Doppler factor
Unknown
Orbital elements
Apogee altitude
612.192 km
Perigee altitude
524.054 km
Semi-major axis
6,946.26 km
Eccentricity
0.00634
Inclination
61.9934°
RAAN
96.8701°
Arg. of periapsis
73.8879°
True anomaly
286.22107°
Mean anomaly
286.9182°
Eccentric anomaly
286.56979°
Mean motion
3.74901 °/min
Orbital period
96.03 mins
BSTAR
0.00022214
Loading maneuver chart data...
Computing Atmospheric mass density...
Loading historical data...
Loading historical data...
Loading historical data...
Loading historical data...
Loading historical data...
Loading historical data...
Loading historical data...

Documentation

Showing up to 5 results
|